TimeCST,TemperatureF,Dew PointF,Humidity,Sea Level PressureIn,VisibilityMPH,Wind Direction,Wind SpeedMPH,Gust SpeedMPH,PrecipitationIn,Events,Conditions,WindDirDegrees,DateUTC
12:53 AM,19.0,12.0,74,30.43,10.0,Calm,Calm,-,N/A,,Partly Cloudy,0,2013-01-15 06:53:00
1:53 AM,17.1,10.9,77,30.41,10.0,Calm,Calm,-,N/A,,Partly Cloudy,0,2013-01-15 07:53:00
2:53 AM,17.6,12.2,79,30.36,10.0,Calm,Calm,-,N/A,,Clear,0,2013-01-15 08:53:00
3:53 AM,15.1,10.0,80,30.40,10.0,ESE,3.5,-,N/A,,Clear,120,2013-01-15 09:53:00
4:53 AM,16.0,10.0,77,30.38,10.0,Calm,Calm,-,N/A,,Mostly Cloudy,0,2013-01-15 10:53:00
5:53 AM,17.1,12.0,81,30.40,10.0,Calm,Calm,-,N/A,,Overcast,0,2013-01-15 11:53:00
6:53 AM,16.0,12.0,84,30.41,10.0,Calm,Calm,-,N/A,,Partly Cloudy,0,2013-01-15 12:53:00
7:53 AM,16.0,12.0,84,30.41,10.0,Calm,Calm,-,N/A,,Overcast,0,2013-01-15 13:53:00
8:53 AM,19.0,14.0,81,30.40,10.0,Calm,Calm,-,N/A,,Clear,0,2013-01-15 14:53:00
9:53 AM,21.9,15.1,75,30.40,10.0,Calm,Calm,-,N/A,,Clear,0,2013-01-15 15:53:00
10:53 AM,28.0,12.9,53,30.39,10.0,East,4.6,-,N/A,,Clear,90,2013-01-15 16:53:00
11:53 AM,30.0,12.9,49,30.35,10.0,East,4.6,-,N/A,,Clear,80,2013-01-15 17:53:00
12:53 PM,32.0,10.9,42,30.32,10.0,Calm,Calm,-,N/A,,Clear,0,2013-01-15 18:53:00
1:53 PM,34.0,10.0,37,30.30,10.0,North,4.6,-,N/A,,Clear,360,2013-01-15 19:53:00
2:53 PM,35.1,10.0,35,30.28,10.0,West,3.5,-,N/A,,Clear,260,2013-01-15 20:53:00
3:53 PM,35.1,9.0,34,30.28,10.0,Calm,Calm,-,N/A,,Clear,0,2013-01-15 21:53:00
4:53 PM,34.0,10.0,37,30.27,10.0,Calm,Calm,-,N/A,,Clear,0,2013-01-15 22:53:00
5:53 PM,30.0,10.0,43,30.27,10.0,Calm,Calm,-,N/A,,Clear,0,2013-01-15 23:53:00
6:53 PM,26.1,12.9,58,30.27,10.0,Calm,Calm,-,N/A,,Clear,0,2013-01-16 00:53:00
7:53 PM,24.1,15.1,69,30.27,10.0,Calm,Calm,-,N/A,,Clear,0,2013-01-16 01:53:00
8:53 PM,24.1,14.0,65,30.25,10.0,Calm,Calm,-,N/A,,Clear,0,2013-01-16 02:53:00
9:53 PM,21.0,12.9,71,30.23,10.0,Calm,Calm,-,N/A,,Clear,0,2013-01-16 03:53:00
10:53 PM,19.9,12.9,74,30.22,10.0,Calm,Calm,-,N/A,,Clear,0,2013-01-16 04:53:00
11:53 PM,21.9,10.9,63,30.20,10.0,Calm,Calm,-,N/A,,Clear,0,2013-01-16 05:53:00